Location: Kalispell
(48.1967°N, 114.3128°W)
Time: 21:40:39
(UTC-06:00)

Amateur Radio Satellites - All Passes

Search period start: 20 October 2014 21:10
Search period end: 21 October 2014 21:10
Location: Kalispell, 48.1967°N, 114.3128°W

Satellite Date Start Highest point End Downlink Frequencies (MHz)
Time Altitude Azimuth
KITSAT 1 20 Oct 21:13:05 21:20:36 40° 36° (NE) 21:28:04 435.175 FM
HO-68 20 Oct 21:13:16 21:20:22 70° 68° (ENE) 21:27:31 435.675 MHz FM
ZACube-1 20 Oct 21:31:35 21:34:05 15° 58° (ENE) 21:36:34 437.345 MHz
UKube-1 20 Oct 21:43:34 21:47:38 40° 68° (ENE) 21:51:44 145.840 MHz, 145.915 MHz
RS-15 20 Oct 22:04:58 22:11:29 18° 97° (E) 22:17:56 29.354 - 29.394 USB, Beacon 29.352 USB
SO-50 20 Oct 22:08:32 22:12:50 32° 38° (NE) 22:17:12 436.795 FM
FUNcube-1 20 Oct 22:15:26 22:19:34 34° 67° (ENE) 22:23:40 145.950 - 145.970 MHz USB
UOSAT-12 20 Oct 22:16:58 22:19:11 13° 15° (NNE) 22:21:24 437.025 FM, 437.400 FM
ISS 20 Oct 22:26:54 22:28:46 14° 224° (SW) 22:30:39 145.800 FM
Oscar 11 20 Oct 22:28:57 22:33:17 86° 256° (WSW) 22:37:39 145.825 FM, Beacon 2401.500 USB
STRAND 1 20 Oct 22:31:15 22:34:10 15° 305° (NW) 22:37:05 ?
HO-68 20 Oct 23:02:47 23:08:40 27° 268° (W) 23:14:36 435.675 MHz FM
ZACube-1 20 Oct 23:05:15 23:09:53 83° 257° (WSW) 23:14:28 437.345 MHz
KITSAT 1 20 Oct 23:08:35 23:16:38 72° 239° (WSW) 23:24:38 435.175 FM
UKube-1 20 Oct 23:20:28 23:23:59 24° 266° (W) 23:27:31 145.840 MHz, 145.915 MHz
SO-50 20 Oct 23:48:57 23:53:39 53° 238° (WSW) 23:58:24 436.795 FM
FUNcube-1 20 Oct 23:51:52 23:55:57 31° 265° (W) 00:00:01 145.950 - 145.970 MHz USB
UOSAT-12 20 Oct 23:56:28 00:00:46 33° 38° (NE) 00:05:01 437.025 FM, 437.400 FM
RS-15 21 Oct 00:10:48 00:21:38 70° 120° (ESE) 00:32:29 29.354 - 29.394 USB, Beacon 29.352 USB
ZACube-1 21 Oct 00:46:10 00:46:58 10° 274° (W) 00:47:47 437.345 MHz
KITSAT 1 21 Oct 01:05:58 01:10:38 17° 260° (W) 01:15:17 435.175 FM
MaSat-1 21 Oct 01:18:59 01:22:43 31° 112° (ESE) 01:26:09 437.345 MHz
UOSAT-12 21 Oct 01:36:33 01:41:07 48° 239° (WSW) 01:45:35 437.025 FM, 437.400 FM
Oscar 16 21 Oct 02:07:51 02:11:25 19° 90° (E) 02:14:58 437.025 USB, Beacon 2401.1428
JAS-1B 21 Oct 02:18:38 02:23:45 24° 93° (E) 02:29:29 435.800 - 435.900 CW/SSB
Uribyol 2 21 Oct 02:21:43 02:22:47 11° 85° (E) 02:23:51 436.500 FM
RS-15 21 Oct 02:24:12 02:34:41 49° 328° (NNW) 02:45:18 29.354 - 29.394 USB, Beacon 29.352 USB
ITAMSAT 1 21 Oct 02:26:14 02:27:44 11° 85° (E) 02:29:14 435.822 SSB
AO-Echo 21 Oct 02:37:12 02:40:59 20° 90° (E) 02:44:47 ?
MaSat-1 21 Oct 02:54:49 02:58:29 30° 308° (NW) 03:01:50 437.345 MHz
Oscar 19 21 Oct 03:01:07 03:06:08 52° 100° (E) 03:11:06 437.125 CW, 437.150 USB
AO-27 21 Oct 03:08:25 03:12:52 27° 94° (E) 03:17:17 436.795 MHz FM
Oscar 16 21 Oct 03:46:09 03:51:16 66° 289° (WNW) 03:56:19 437.025 USB, Beacon 2401.1428
Uribyol 2 21 Oct 03:57:56 04:03:11 74° 103° (ESE) 04:08:23 436.500 FM
Gurwin Techsat 1B 21 Oct 03:57:58 04:02:58 40° 97° (E) 04:07:55 435.225 FM
ITAMSAT 1 21 Oct 04:02:51 04:08:07 76° 104° (ESE) 04:13:20 435.822 SSB
JAS-1B 21 Oct 04:08:38 04:14:49 69° 289° (WNW) 04:22:07 435.800 - 435.900 CW/SSB
TMSAT-1 21 Oct 04:11:59 04:16:59 40° 97° (E) 04:21:55 436.925 FM
AO-Echo 21 Oct 04:14:58 04:20:13 68° 288° (WNW) 04:25:29 ?
RS-15 21 Oct 04:40:40 04:50:18 33° 1° (N) 05:00:09 29.354 - 29.394 USB, Beacon 29.352 USB
Oscar 19 21 Oct 04:41:02 04:45:11 25° 299° (WNW) 04:49:19 437.125 CW, 437.150 USB
AO-27 21 Oct 04:47:35 04:52:36 47° 292° (WNW) 04:57:35 436.795 MHz FM
OPAL 21 Oct 04:53:54 04:58:36 37° 63° (ENE) 05:03:17 ?
JAS-2 21 Oct 05:08:50 05:10:28 11° 78° (ENE) 05:12:06 435.800 - 435.900 CW/SSB, 435.910 FM
AO-7 21 Oct 05:25:46 05:33:34 42° 98° (E) 05:41:20 29.400 - 29.500 MHz
Sapphire 21 Oct 05:26:00 05:30:55 37° 113° (ESE) 05:35:52 437.095 MHz 1200 baud AX-25 AFSK
Oscar 16 21 Oct 05:27:51 05:29:40 12° 308° (NW) 05:31:29 437.025 USB, Beacon 2401.1428
Gurwin Techsat 1B 21 Oct 05:38:07 05:42:52 34° 296° (WNW) 05:47:35 435.225 FM
Uribyol 2 21 Oct 05:38:27 05:42:07 20° 303° (WNW) 05:45:46 436.500 FM
ITAMSAT 1 21 Oct 05:43:27 05:47:03 19° 303° (WNW) 05:50:38 435.822 SSB
PCSat 21 Oct 05:48:32 05:53:50 59° 118° (ESE) 05:59:10 145.825 MHz
TMSAT-1 21 Oct 05:52:05 05:56:49 34° 296° (WNW) 06:01:32 436.925 FM
AO-Echo 21 Oct 05:55:51 05:58:03 13° 307° (NW) 06:00:16 ?
Uosat F 21 Oct 05:56:13 06:01:12 53° 101° (E) 06:06:07 435.120 FM
JAS-1B 21 Oct 06:01:20 06:04:37 15° 308° (NW) 06:08:08 435.800 - 435.900 CW/SSB
STRAND 1 21 Oct 06:31:54 06:36:21 31° 63° (ENE) 06:40:50 ?
OPAL 21 Oct 06:32:49 06:37:30 35° 261° (W) 06:42:11 ?
Hamsat 21 Oct 06:37:04 06:40:14 20° 92° (E) 06:43:22 145.90 MHz
JAS-2 21 Oct 06:49:39 06:57:05 53° 98° (E) 07:04:43 435.800 - 435.900 CW/SSB, 435.910 FM
RS-15 21 Oct 06:55:12 07:05:53 50° 34° (NE) 07:16:55 29.354 - 29.394 USB, Beacon 29.352 USB
Sapphire 21 Oct 07:09:07 07:14:17 44° 313° (NW) 07:19:30 437.095 MHz 1200 baud AX-25 AFSK
AO-7 21 Oct 07:18:34 07:26:34 54° 299° (WNW) 07:34:34 29.400 - 29.500 MHz
PCSat 21 Oct 07:32:48 07:37:36 31° 319° (NW) 07:42:25 145.825 MHz
Uosat F 21 Oct 07:35:37 07:39:40 25° 299° (WNW) 07:43:42 435.120 FM
STRAND 1 21 Oct 08:10:34 08:15:24 42° 262° (W) 08:20:18 ?
Hamsat 21 Oct 08:12:25 08:16:23 43° 290° (WNW) 08:20:21 145.90 MHz
JAS-2 21 Oct 08:34:58 08:41:55 42° 297° (WNW) 08:49:09 435.800 - 435.900 CW/SSB, 435.910 FM
Sapphire 21 Oct 08:56:08 08:59:10 15° 337° (NNW) 09:02:12 437.095 MHz 1200 baud AX-25 AFSK
SO-67 21 Oct 09:04:11 09:07:38 67° 285° (WNW) 09:11:03 435.3500 MHz FM
RS-15 21 Oct 09:07:54 09:18:53 69° 240° (WSW) 09:30:20 29.354 - 29.394 USB, Beacon 29.352 USB
AO-7 21 Oct 09:12:49 09:17:36 17° 322° (NW) 09:22:23 29.400 - 29.500 MHz
Saudisat 1A 21 Oct 09:20:16 09:24:16 35° 119° (ESE) 09:28:18 436.775 MHz
PCSat 21 Oct 09:20:39 09:22:50 12° 344° (NNW) 09:25:01 145.825 MHz
MaSat-1 21 Oct 09:27:46 09:28:54 12° 42° (NE) 09:30:00 437.345 MHz
Oscar 11 21 Oct 10:14:29 10:16:41 14° 88° (E) 10:18:52 145.825 FM, Beacon 2401.500 USB
JAS-2 21 Oct 10:22:48 10:25:09 12° 318° (NW) 10:27:33 435.800 - 435.900 CW/SSB, 435.910 FM
HO-68 21 Oct 10:24:31 10:31:32 52° 100° (E) 10:38:30 435.675 MHz FM
Sapphire 21 Oct 10:44:28 10:45:08 10° 4° (N) 10:45:47 437.095 MHz 1200 baud AX-25 AFSK
ZACube-1 21 Oct 10:52:27 10:54:54 15° 89° (E) 10:57:19 437.345 MHz
Saudisat 1A 21 Oct 10:59:44 11:03:50 37° 319° (NW) 11:07:58 436.775 MHz
MaSat-1 21 Oct 11:02:19 11:05:01 44° 245° (WSW) 11:07:27 437.345 MHz
UKube-1 21 Oct 11:03:58 11:08:10 44° 99° (E) 11:12:21 145.840 MHz, 145.915 MHz
PCSat 21 Oct 11:07:20 11:08:52 11° 11° (N) 11:10:24 145.825 MHz
RS-15 21 Oct 11:22:28 11:29:06 18° 263° (W) 11:35:54 29.354 - 29.394 USB, Beacon 29.352 USB
FUNcube-1 21 Oct 11:37:00 11:41:05 40° 97° (E) 11:45:04 145.950 - 145.970 MHz USB
Oscar 11 21 Oct 11:49:03 11:53:21 69° 286° (WNW) 11:57:37 145.825 FM, Beacon 2401.500 USB
HO-68 21 Oct 12:12:32 12:19:05 39° 301° (WNW) 12:25:37 435.675 MHz FM
Sapphire 21 Oct 12:27:03 12:30:53 19° 30° (NNE) 12:34:42 437.095 MHz 1200 baud AX-25 AFSK
ZACube-1 21 Oct 12:27:29 12:31:47 62° 287° (WNW) 12:35:57 437.345 MHz
UKube-1 21 Oct 12:40:41 12:44:07 23° 297° (WNW) 12:47:33 145.840 MHz, 145.915 MHz
Saudisat 1A 21 Oct 12:42:38 12:44:38 13° 341° (NNW) 12:46:38 436.775 MHz
Oscar 19 21 Oct 12:44:36 12:48:01 18° 57° (ENE) 12:51:27 437.125 CW, 437.150 USB
PCSat 21 Oct 12:49:54 12:54:21 25° 36° (NE) 12:58:47 145.825 MHz
AO-27 21 Oct 12:55:14 12:56:35 11° 50° (NE) 12:57:56 436.795 MHz FM
JAS-1B 21 Oct 13:09:42 13:14:28 27° 60° (ENE) 13:19:06 435.800 - 435.900 CW/SSB
FUNcube-1 21 Oct 13:13:49 13:17:16 24° 296° (WNW) 13:20:39 145.950 - 145.970 MHz USB
Oscar 16 21 Oct 13:27:57 13:32:44 40° 66° (ENE) 13:37:31 437.025 USB, Beacon 2401.1428
Oscar 10/S400 21 Oct 13:35:43 13:48:41 19° 147° (SSE) 14:01:45 145.825 - 145.975 CW/USB, Beacon 145.810 USB
KITSAT 1 21 Oct 13:40:22 13:48:03 50° 115° (ESE) 13:55:45 435.175 FM
Uribyol 2 21 Oct 13:41:24 13:45:38 26° 61° (ENE) 13:49:54 436.500 FM
Gurwin Techsat 1B 21 Oct 13:45:40 13:48:45 16° 55° (NE) 13:51:50 435.225 FM
ITAMSAT 1 21 Oct 13:46:23 13:50:40 27° 61° (ENE) 13:54:59 435.822 SSB
AO-Echo 21 Oct 13:53:34 13:57:56 34° 65° (ENE) 14:02:27 ?
TMSAT-1 21 Oct 13:59:26 14:02:28 16° 55° (NE) 14:05:31 436.925 FM
HO-68 21 Oct 14:03:28 14:04:53 11° 323° (NW) 14:06:17 435.675 MHz FM
SO-50 21 Oct 14:08:09 14:11:33 21° 113° (ESE) 14:15:01 436.795 FM
Sapphire 21 Oct 14:09:55 14:15:21 67° 53° (NE) 14:20:45 437.095 MHz 1200 baud AX-25 AFSK
Oscar 19 21 Oct 14:21:37 14:26:47 78° 256° (WSW) 14:31:58 437.125 CW, 437.150 USB
AO-27 21 Oct 14:29:57 14:35:03 59° 70° (ENE) 14:40:12 436.795 MHz FM
PCSat 21 Oct 14:32:57 14:38:24 81° 238° (WSW) 14:43:49 145.825 MHz
AO-7 21 Oct 14:39:12 14:45:09 23° 44° (NE) 14:51:06 29.400 - 29.500 MHz
JAS-1B 21 Oct 14:59:03 15:04:56 53° 259° (W) 15:10:30 435.800 - 435.900 CW/SSB
Oscar 16 21 Oct 15:07:34 15:12:10 32° 265° (W) 15:16:47 437.025 USB, Beacon 2401.1428
ISS 21 Oct 15:10:11 15:13:05 28° 143° (SE) 15:16:00 145.800 FM
Uribyol 2 21 Oct 15:19:43 15:24:48 53° 260° (W) 15:29:57 436.500 FM
Gurwin Techsat 1B 21 Oct 15:22:39 15:27:58 86° 74° (ENE) 15:33:19 435.225 FM
ITAMSAT 1 21 Oct 15:24:50 15:29:53 51° 260° (W) 15:35:00 435.822 SSB
AO-Echo 21 Oct 15:32:15 15:36:41 35° 264° (W) 15:41:18 ?
KITSAT 1 21 Oct 15:35:41 15:43:31 51° 317° (NW) 15:51:23 435.175 FM
TMSAT-1 21 Oct 15:36:19 15:41:37 85° 74° (ENE) 15:46:58 436.925 FM
Uosat F 21 Oct 15:36:36 15:39:54 18° 57° (ENE) 15:43:13 435.120 FM
SO-50 21 Oct 15:47:12 15:51:42 61° 313° (NW) 15:56:21 436.795 FM
UOSAT-12 21 Oct 15:51:43 15:55:17 22° 113° (ESE) 15:58:54 437.025 FM, 437.400 FM
Sapphire 21 Oct 15:54:09 15:58:18 23° 252° (WSW) 16:02:26 437.095 MHz 1200 baud AX-25 AFSK
Saudisat 1A 21 Oct 16:04:13 16:07:30 20° 30° (NNE) 16:10:45 436.775 MHz
Oscar 19 21 Oct 16:05:27 16:06:59 11° 275° (W) 16:08:31 437.125 CW, 437.150 USB
AO-27 21 Oct 16:10:59 16:14:57 22° 269° (W) 16:18:58 436.795 MHz FM
PCSat 21 Oct 16:18:20 16:20:57 14° 257° (WSW) 16:23:34 145.825 MHz
AO-7 21 Oct 16:28:28 16:36:42 75° 67° (ENE) 16:44:59 29.400 - 29.500 MHz
ISS 21 Oct 16:46:15 16:49:36 71° 342° (NNW) 16:52:57 145.800 FM
Gurwin Techsat 1B 21 Oct 17:05:42 17:08:39 15° 273° (W) 17:11:36 435.225 FM
JAS-2 21 Oct 17:06:36 17:11:49 32° 59° (ENE) 17:17:37 435.800 - 435.900 CW/SSB, 435.910 FM
Uosat F 21 Oct 17:13:05 17:18:06 78° 256° (WSW) 17:23:11 435.120 FM
TMSAT-1 21 Oct 17:19:16 17:22:15 15° 273° (W) 17:25:15 436.925 FM
SO-50 21 Oct 17:30:07 17:33:13 17° 335° (NNW) 17:36:22 436.795 FM
UOSAT-12 21 Oct 17:30:25 17:35:03 61° 313° (NW) 17:39:46 437.025 FM, 437.400 FM
Hamsat 21 Oct 17:33:55 17:37:19 24° 65° (ENE) 17:40:42 145.90 MHz
KITSAT 1 21 Oct 17:34:39 17:41:00 24° 345° (NNW) 17:47:21 435.175 FM
Saudisat 1A 21 Oct 17:43:15 17:47:43 85° 51° (NE) 17:52:08 436.775 MHz
ISS 21 Oct 18:23:21 18:26:35 44° 1° (N) 18:29:49 145.800 FM
AO-7 21 Oct 18:23:23 18:30:15 28° 267° (W) 18:37:10 29.400 - 29.500 MHz
OPAL 21 Oct 18:38:33 18:43:19 44° 101° (E) 18:48:02 ?
JAS-2 21 Oct 18:50:49 18:56:33 54° 262° (W) 19:03:05 435.800 - 435.900 CW/SSB, 435.910 FM
Uosat F 21 Oct 18:56:29 18:57:44 11° 274° (W) 18:59:00 435.120 FM
Hamsat 21 Oct 19:09:09 19:13:06 38° 263° (W) 19:17:02 145.90 MHz
UOSAT-12 21 Oct 19:12:56 19:16:09 18° 335° (NNW) 19:19:22 437.025 FM, 437.400 FM
HO-68 21 Oct 19:13:35 19:17:18 15° 43° (NE) 19:21:01 435.675 MHz FM
SO-50 21 Oct 19:14:30 19:15:43 11° 0° (N) 19:16:57 436.795 FM
Saudisat 1A 21 Oct 19:24:23 19:26:39 14° 250° (WSW) 19:28:55 436.775 MHz
KITSAT 1 21 Oct 19:33:12 19:39:31 24° 15° (NNE) 19:45:49 435.175 FM
SO-67 21 Oct 19:39:54 19:43:19 67° 75° (ENE) 19:46:45 435.3500 MHz FM
ISS 21 Oct 20:00:11 20:03:32 83° 21° (NNE) 20:06:53 145.800 FM
STRAND 1 21 Oct 20:17:06 20:22:08 50° 100° (E) 20:27:08 ?
OPAL 21 Oct 20:17:47 20:22:02 29° 300° (WNW) 20:26:15 ?
SO-50 21 Oct 20:55:01 20:58:14 18° 25° (NNE) 21:01:28 436.795 FM
HO-68 21 Oct 20:56:36 21:03:32 56° 65° (ENE) 21:10:32 435.675 MHz FM
UOSAT-12 21 Oct 20:57:00 20:58:13 11° 359° (N) 20:59:26 437.025 FM, 437.400 FM
